Starlink 11623

operational
NORAD ID: 63276 Int'l Des: 2025-053 Owner: SPXS Country: US Constellation: starlink
LEOCIRCULAR

关于 Starlink 11623

正在加载描述...

实时位置

正在加载3D地球...

即将过境

高度历史

Altitude vs Time

uPlot chart will show altitude changes over time

两行轨道根数

1 63276U 25053M 25306.31944969 .00225933 00000-0 17065-2 0 9995
2 63276 43.0000 160.3187 0001995 280.9589 79.1054 15.70982773 37627
Epoch: Nov 2, 2025 • Age: 26 hours

当前状态

高度 366.8 km
速度 7.69 km/s
星下点 -42.92°S, 124.35°W
发射日期 Mar 15, 2025
运行时间 0.6 years
类型 internet

技术详情

分类 Payload
质量 960.00 kg
干质量 910.00 kg
总质量 960.00 kg
长度 0.30 m
直径 4.10 m
跨度 29.00 m
形状 Box + pan
制造商 SPXS
平台类型 Starlink V2MD
阶段状态 In Orbit
所有者/国家 SPXS/US

大型星座

Loading constellations...